Temperature
7 7 7 6 6 5 5 4 3 2 2 3 2 2 1 -0 -1 -1 -1 -2 -2 -2 -2 -2 -3 -4 -4 -4 -4 -5 -5 -5 -4 -4 -4 -4 -3 -3
6 6 5 5 4 4 4 3 2 1 0 1 1 0 -0 -0 -1 -2 -2 -3 -3 -3 -3 -3 -4 -5 -5 -5 -5 -5 -5 -5 -5 -5 -4 -4 -4 -3
5 4 4 3 3 3 2 2 1 0 -0 -0 -1 -1 -1 -1 -2 -2 -3 -3 -3 -3 -3 -4 -4 -5 -5 -5 -6 -6 -6 -6 -5 -5 -5 -5 -4 -4
4 3 2 2 2 2 1 0 -0 -1 -1 -2 -2 -2 -2 -3 -3 -4 -4 -4 -4 -4 -4 -4 -5 -5 -5 -5 -6 -6 -6 -6 -6 -6 -5 -5 -5 -5
3 2 2 1 1 1 -0 -0 -1 -2 -2 -3 -3 -4 -4 -4 -5 -5 -5 -5 -5 -4 -4 -4 -5 -5 -5 -6 -6 -6 -6 -6 -6 -6 -6 -6 -6 -5
2 1 1 1 0 -0 -1 -1 -2 -2 -3 -4 -5 -5 -5 -5 -6 -7 -7 -6 -5 -5 -5 -5 -5 -5 -5 -5 -5 -5 -5 -5 -5 -5 -6 -6 -6 -6
1 1 0 -0 -1 -1 -2 -2 -3 -4 -4 -5 -6 -6 -6 -7 -7 -8 -8 -7 -7 -6 -5 -5 -5 -5 -5 -5 -5 -5 -5 -5 -5 -6 -6 -6 -6 -6
0 -0 -1 -1 -2 -2 -3 -4 -4 -5 -6 -7 -7 -7 -7 -7 -8 -8 -8 -9 -9 -7 -7 -7 -6 -6 -5 -5 -5 -5 -5 -5 -6 -6 -6 -6 -6 -6
-1 -1 -2 -2 -3 -3 -4 -4 -4 -5 -7 -8 -8 -8 -8 -8 -8 -8 -9 -9 -9 -8 -8 -7 -6 -6 -6 -6 -5 -5 -5 -6 -6 -6 -6 -6 -7 -6
-2 -2 -3 -3 -3 -4 -4 -5 -5 -6 -6 -7 -7 -8 -8 -8 -9 -9 -9 -9 -8 -7 -7 -8 -6 -6 -6 -6 -5 -5 -5 -6 -6 -6 -6 -7 -7 -7
-3 -3 -4 -4 -4 -5 -7 -7 -6 -6 -7 -7 -7 -7 -8 -8 -8 -8 -8 -8 -8 -8 -7 -8 -7 -7 -7 -6 -5 -5 -6 -6 -6 -6 -6 -6 -6 -6
-3 -4 -5 -5 -6 -7 -8 -8 -7 -7 -7 -6 -6 -7 -7 -7 -7 -8 -8 -8 -9 -9 -8 -9 -9 -9 -9 -8 -7 -6 -6 -6 -6 -6 -6 -6 -6 -6
-4 -5 -5 -6 -7 -8 -8 -8 -8 -8 -8 -7 -7 -7 -7 -7 -7 -7 -8 -8 -9 -9 -8 -9 -9 -9 -10 -10 -8 -6 -6 -6 -6 -6 -5 -6 -6 -6
-5 -5 -6 -7 -7 -7 -7 -7 -8 -8 -7 -7 -7 -7 -7 -7 -7 -7 -7 -8 -8 -8 -8 -8 -9 -9 -10 -10 -9 -7 -7 -6 -6 -6 -6 -6 -6 -7
-6 -7 -7 -7 -7 -7 -7 -7 -7 -7 -7 -7 -7 -7 -7 -7 -7 -7 -7 -7 -7 -7 -7 -8 -9 -9 -10 -10 -10 -8 -7 -6 -6 -6 -6 -7 -6 -6
-6 -7 -7 -7 -7 -7 -7 -7 -7 -8 -8 -8 -7 -7 -7 -7 -7 -7 -7 -7 -7 -6 -6 -7 -8 -9 -9 -9 -9 -8 -7 -7 -6 -7 -7 -7 -6 -6
-7 -7 -7 -7 -7 -7 -7 -7 -7 -7 -7 -7 -7 -7 -7 -7 -7 -7 -8 -8 -8 -7 -6 -6 -7 -8 -8 -9 -8 -7 -7 -7 -7 -7 -8 -7 -6 -6
-8 -8 -8 -8 -8 -8 -7 -7 -7 -7 -8 -8 -8 -8 -8 -8 -7 -7 -7 -8 -8 -7 -7 -7 -7 -8 -8 -8 -8 -8 -7 -7 -7 -8 -8 -9 -8 -6
-8 -8 -8 -8 -8 -8 -8 -8 -7 -8 -8 -8 -8 -8 -8 -8 -8 -7 -8 -8 -8 -8 -7 -7 -8 -9 -10 -10 -8 -8 -8 -8 -8 -8 -8 -8 -8 -6
-8 -8 -8 -8 -8 -8 -8 -8 -8 -8 -8 -8 -8 -8 -8 -8 -8 -8 -8 -8 -8 -8 -8 -7 -8 -9 -9 -9 -9 -7 -7 -8 -8 -8 -8 -7 -7 -6
-8 -8 -8 -8 -8 -8 -8 -8 -8 -8 -8 -8 -8 -8 -8 -8 -8 -8 -8 -8 -8 -8 -8 -8 -7 -8 -8 -9 -9 -7 -6 -6 -7 -7 -7 -7 -7 -6
-8 -8 -8 -8 -8 -8 -8 -8 -8 -8 -8 -8 -8 -8 -8 -8 -8 -8 -8 -8 -8 -8 -8 -8 -7 -7 -8 -8 -9 -8 -6 -5 -5 -5 -6 -6 -7 -7
-9 -8 -8 -8 -8 -8 -8 -8 -8 -8 -8 -8 -8 -8 -8 -8 -7 -8 -8 -8 -8 -8 -8 -8 -7 -7 -7 -8 -8 -7 -6 -6 -6 -5 -4 -5 -6 -6
Wind_Speed
8 8 6 4 3 4 4 4 4 2 3 3 2 2 4 6 11 13 12 17 22 23 23 24 24 24 25 25 26 26 26 26 26 27 27 27 27 27
7 8 6 4 4 3 3 3 3 4 4 3 4 3 5 9 13 15 15 20 21 22 23 24 25 25 26 26 26 26 26 27 27 27 27 28 28 28
8 7 6 5 4 3 2 2 3 3 5 4 3 3 4 6 12 15 16 16 17 22 25 26 25 25 25 26 26 26 26 26 27 27 28 28 28 29
8 7 5 4 4 2 2 3 3 4 5 6 3 3 6 7 7 8 13 16 17 23 25 25 25 25 25 25 25 25 26 27 27 28 28 29 29 29
8 6 5 3 2 1 2 3 3 4 4 4 5 4 5 5 6 7 9 11 17 20 23 24 24 24 25 25 26 27 28 28 28 28 28 29 29 29
7 5 4 2 2 2 3 4 4 4 4 5 6 5 5 6 5 6 9 7 10 15 20 22 22 24 25 28 29 29 28 28 28 28 28 28 28 29
5 4 2 1 2 2 3 4 4 4 4 5 6 6 6 5 6 6 11 10 10 10 10 9 12 13 19 25 26 27 28 28 28 28 28 28 29 29
5 3 2 2 3 5 7 8 8 5 5 5 6 7 8 7 8 9 11 12 10 4 6 10 9 13 11 17 25 28 29 29 29 29 29 28 28 29
4 2 1 1 3 3 7 9 9 12 13 9 8 9 9 9 10 12 11 12 13 9 10 15 10 13 11 20 27 29 30 30 29 28 27 26 26 27
3 2 1 3 4 6 6 6 6 7 10 8 8 10 10 10 11 11 11 10 10 9 7 11 12 13 13 13 26 29 29 27 26 26 26 26 27 27
1 0 2 4 9 11 6 5 7 7 12 16 18 18 20 22 18 9 7 9 12 9 5 5 5 7 10 12 17 23 23 24 26 28 28 28 27 26
0 2 5 7 10 11 6 5 7 8 8 9 10 13 13 15 16 8 5 8 8 7 4 4 5 6 7 5 7 10 15 23 28 28 28 27 26 17
1 2 4 10 12 13 11 5 9 11 5 5 8 9 8 7 6 6 6 7 10 9 7 5 6 5 7 8 6 8 11 13 14 17 23 25 25 19
2 3 5 12 13 13 10 11 14 11 4 6 7 8 8 8 8 8 10 11 13 14 15 12 10 10 11 14 11 7 8 10 12 14 12 18 19 21
3 8 10 13 12 9 11 12 9 5 5 6 8 9 8 8 9 9 10 10 12 16 18 16 13 12 12 13 11 12 12 11 12 11 9 9 10 11
4 6 10 11 9 9 9 7 5 5 6 7 8 9 9 9 9 8 9 10 11 11 9 13 12 12 13 14 14 17 14 9 9 10 11 13 12 12
3 3 3 4 5 6 5 5 5 5 6 7 8 9 10 10 10 7 7 7 9 11 14 9 7 10 14 15 15 16 15 15 14 12 12 14 13 12
5 3 4 5 6 6 7 8 7 7 7 8 9 9 10 10 11 10 8 10 11 12 13 12 11 11 8 10 17 16 15 14 13 12 13 15 17 13
3 4 5 5 6 6 7 7 8 8 8 8 9 9 10 10 11 11 11 11 12 12 13 11 11 11 14 16 8 14 13 15 15 15 13 14 17 15
3 4 5 6 6 7 7 8 8 9 8 8 9 9 9 10 11 11 11 12 13 14 14 11 9 10 12 15 14 15 16 15 14 16 15 14 15 19
5 5 6 6 7 7 8 8 8 9 10 9 10 10 10 10 11 11 12 17 15 13 14 14 13 19 14 11 12 14 13 14 16 15 15 15 15 12
6 6 7 7 7 7 8 8 8 9 10 10 10 10 10 10 12 13 13 13 13 13 15 14 13 13 11 12 15 16 18 18 17 20 20 18 11 7
7 7 7 8 8 7 8 8 10 10 10 10 10 10 11 11 11 12 13 13 13 14 15 15 13 11 11 12 14 15 18 18 15 15 14 17 19 20
Wind_Direction
122 119 117 114 107 109 124 142 157 214 265 266 269 252 234 277 305 309 302 308 308 307 305 301 299 297 295 293 291 290 289 288 286 285 283 281 280 278
121 120 117 119 120 121 129 139 159 181 233 247 242 245 267 288 299 306 302 305 308 305 302 300 298 296 293 291 290 289 288 287 285 283 282 281 280 280
117 118 118 123 123 121 128 153 181 185 233 259 249 260 270 276 291 295 296 291 290 300 301 299 297 295 294 293 292 290 288 286 285 284 283 283 282 280
116 113 114 115 111 126 162 195 209 207 223 263 267 267 263 272 275 282 294 296 294 298 299 299 298 297 296 294 292 291 290 289 287 285 283 281 280 279
111 114 119 120 134 171 202 221 230 233 220 244 267 256 264 272 279 281 282 285 291 295 297 298 297 296 296 296 296 295 293 290 287 284 282 280 278 277
103 108 116 133 189 214 228 238 242 248 245 251 265 267 266 265 266 282 295 284 289 293 291 290 292 295 295 295 294 293 291 289 286 284 281 278 276 274
103 101 109 147 232 240 252 245 236 243 252 260 273 279 277 278 278 282 296 297 287 278 278 277 283 284 287 289 291 290 288 287 285 284 282 280 278 276
110 94 65 45 357 341 315 299 285 270 265 262 273 279 284 280 285 289 294 298 299 265 276 287 283 286 285 283 286 289 289 289 288 287 285 282 279 276
112 98 63 351 353 308 298 300 299 297 294 290 285 282 285 284 284 285 283 283 286 286 292 292 285 285 284 285 288 289 290 291 290 288 286 283 281 278
111 136 233 292 296 290 267 268 267 274 284 284 266 269 272 274 270 280 288 290 283 278 273 283 287 284 284 281 286 287 288 289 290 290 289 288 285 282
119 155 295 285 301 309 305 287 286 284 296 298 295 295 298 301 303 302 297 297 296 291 262 261 280 286 283 277 276 282 286 290 292 292 290 288 285 283
359 305 316 314 310 315 308 292 294 292 290 297 301 301 298 296 299 289 275 282 289 293 254 254 279 305 299 261 256 272 280 285 287 287 287 287 286 284
315 301 295 318 319 318 320 313 298 305 310 311 304 299 295 288 283 269 255 261 276 275 276 281 279 271 272 288 275 265 272 278 283 284 286 285 284 279
298 288 295 320 326 327 326 314 314 324 331 309 300 298 299 300 298 292 283 271 264 268 274 275 276 279 282 286 289 281 272 275 279 281 280 283 283 279
312 323 329 332 333 332 323 323 332 329 307 301 300 299 296 292 295 295 292 283 275 271 269 262 260 268 270 275 280 286 294 289 278 272 273 271 272 273
329 335 338 337 335 326 325 325 312 295 298 297 299 299 301 298 295 294 298 305 302 295 266 248 247 254 267 270 274 281 282 278 280 276 278 279 272 263
349 3 344 334 332 326 317 306 300 304 306 301 300 302 303 302 300 298 289 294 291 296 303 297 253 246 253 263 273 273 275 275 273 276 280 282 277 264
359 343 326 321 317 317 317 316 313 308 305 303 300 297 298 300 301 300 293 293 294 294 295 299 303 303 286 260 239 258 269 274 279 278 275 280 283 274
358 318 310 307 305 304 303 303 304 304 302 297 295 295 296 296 297 299 301 298 296 295 294 294 295 297 303 307 275 234 256 279 286 285 280 275 278 281
312 301 301 301 301 301 301 300 301 303 301 298 296 294 293 295 296 296 297 297 300 300 301 298 291 292 293 295 296 290 274 271 280 284 286 282 277 277
306 298 295 295 296 295 295 295 294 296 295 297 295 293 292 293 293 294 297 300 302 301 301 302 297 298 295 290 290 293 293 279 277 281 286 287 288 285
298 297 297 294 293 292 292 292 293 293 294 293 292 292 292 291 292 295 298 300 300 298 298 299 299 301 299 299 298 299 303 306 301 293 282 274 278 282
295 295 294 294 291 289 289 289 290 291 290 290 292 293 295 296 295 294 295 297 299 300 303 306 307 305 302 300 300 301 302 306 310 311 305 294 286 277
Height
1489 1490 1492 1494 1497 1497 1498 1499 1501 1499 1498 1498 1498 1497 1495 1492 1489 1485 1482 1478 1475 1472 1469 1466 1463 1460 1458 1456 1454 1452 1451 1449 1448 1447 1446 1446 1445 1445
1483 1486 1487 1489 1491 1492 1493 1494 1494 1494 1492 1491 1491 1490 1488 1486 1483 1479 1474 1471 1467 1464 1460 1457 1454 1451 1449 1447 1445 1443 1442 1440 1439 1438 1437 1436 1436 1435
1479 1481 1483 1485 1486 1487 1488 1489 1488 1487 1485 1484 1484 1483 1480 1478 1475 1472 1467 1463 1459 1456 1453 1449 1446 1443 1441 1438 1436 1434 1433 1431 1430 1428 1427 1426 1426 1425
1475 1477 1480 1481 1482 1483 1483 1483 1483 1482 1480 1477 1476 1475 1473 1471 1467 1463 1459 1455 1452 1448 1445 1441 1438 1435 1432 1430 1428 1426 1424 1422 1420 1418 1417 1416 1415 1414
1472 1474 1476 1477 1478 1478 1478 1478 1478 1476 1474 1471 1469 1467 1465 1463 1459 1455 1451 1448 1444 1441 1437 1434 1431 1428 1425 1422 1420 1417 1414 1412 1410 1408 1406 1405 1404 1403
1469 1471 1473 1473 1473 1474 1474 1473 1472 1470 1468 1466 1463 1460 1458 1455 1452 1447 1442 1439 1436 1433 1430 1426 1423 1420 1418 1414 1411 1407 1405 1402 1400 1397 1396 1394 1393 1392
1467 1468 1468 1469 1469 1469 1469 1468 1467 1464 1462 1460 1457 1453 1451 1448 1445 1441 1436 1431 1427 1426 1421 1418 1415 1411 1408 1405 1402 1398 1395 1393 1390 1388 1386 1384 1383 1382
1464 1465 1465 1465 1465 1464 1464 1463 1462 1460 1457 1454 1451 1448 1445 1443 1439 1435 1431 1426 1420 1419 1414 1409 1408 1402 1400 1396 1393 1389 1386 1383 1380 1378 1376 1374 1372 1371
1461 1462 1462 1462 1461 1460 1458 1457 1456 1454 1452 1450 1445 1442 1440 1437 1434 1429 1426 1421 1416 1413 1409 1400 1399 1394 1391 1387 1384 1381 1378 1374 1371 1368 1366 1364 1362 1361
1459 1459 1459 1458 1457 1455 1452 1451 1449 1448 1446 1443 1440 1437 1434 1431 1429 1425 1420 1415 1410 1407 1404 1394 1389 1385 1381 1378 1376 1372 1369 1366 1362 1359 1356 1354 1352 1350
1457 1456 1455 1454 1452 1449 1448 1445 1443 1442 1440 1438 1435 1432 1430 1427 1423 1419 1414 1408 1401 1397 1396 1389 1381 1375 1369 1366 1365 1363 1360 1356 1353 1349 1346 1343 1341 1339
1454 1452 1451 1449 1447 1445 1443 1441 1438 1436 1433 1431 1429 1427 1424 1421 1418 1414 1409 1403 1397 1389 1386 1383 1376 1371 1359 1352 1353 1352 1349 1346 1343 1339 1336 1333 1331 1328
1450 1448 1447 1445 1443 1442 1440 1437 1434 1432 1429 1426 1423 1421 1418 1415 1412 1408 1404 1399 1393 1386 1383 1378 1370 1366 1360 1348 1342 1342 1340 1336 1332 1329 1326 1323 1321 1318
1446 1445 1443 1441 1439 1437 1435 1433 1430 1428 1425 1422 1419 1416 1412 1409 1406 1402 1398 1393 1388 1382 1377 1373 1366 1360 1354 1345 1337 1331 1330 1327 1323 1319 1316 1314 1312 1310
1443 1441 1439 1437 1435 1433 1431 1429 1426 1424 1421 1418 1414 1411 1408 1404 1400 1396 1391 1386 1381 1377 1372 1366 1360 1354 1349 1342 1333 1326 1321 1317 1315 1311 1308 1305 1302 1300
1440 1438 1437 1434 1432 1430 1428 1426 1424 1421 1417 1414 1410 1407 1403 1399 1394 1390 1384 1379 1372 1367 1365 1359 1354 1348 1341 1335 1328 1320 1315 1310 1305 1303 1298 1294 1291 1289
1437 1436 1434 1432 1430 1428 1426 1423 1421 1418 1415 1411 1407 1402 1398 1393 1389 1385 1379 1373 1367 1360 1354 1351 1347 1341 1334 1328 1321 1314 1308 1302 1298 1294 1289 1283 1280 1279
1435 1433 1431 1429 1427 1425 1422 1420 1417 1414 1411 1407 1403 1399 1394 1389 1384 1379 1374 1368 1361 1355 1349 1343 1338 1331 1325 1318 1314 1307 1301 1295 1289 1286 1281 1276 1269 1268
1433 1431 1429 1427 1425 1422 1420 1417 1414 1411 1407 1403 1399 1395 1390 1385 1379 1374 1368 1362 1356 1350 1344 1339 1333 1327 1320 1310 1303 1301 1295 1287 1282 1277 1273 1268 1261 1257
1431 1429 1427 1425 1422 1419 1417 1413 1410 1407 1403 1399 1395 1391 1386 1381 1375 1369 1364 1358 1351 1345 1338 1333 1329 1323 1317 1309 1299 1291 1289 1283 1276 1270 1264 1259 1253 1249
1429 1427 1425 1422 1419 1417 1413 1410 1407 1403 1399 1395 1391 1386 1382 1377 1371 1365 1359 1353 1348 1341 1334 1327 1323 1318 1312 1304 1295 1285 1280 1277 1271 1265 1257 1251 1245 1240
1427 1424 1422 1419 1416 1413 1410 1406 1403 1399 1395 1391 1387 1382 1377 1372 1367 1361 1355 1349 1343 1336 1330 1323 1317 1311 1305 1299 1291 1282 1273 1268 1263 1259 1253 1247 1242 1234
1424 1421 1419 1416 1413 1410 1406 1403 1399 1395 1391 1387 1382 1378 1373 1368 1362 1357 1351 1345 1338 1332 1325 1318 1311 1306 1300 1294 1286 1278 1270 1263 1256 1249 1245 1241 1237 1231